Tracking 29892 objects as of 21-Nov-2024
HD Live streaming from Space Station
objects crossing your sky now

CZ-4B DEB

Track CZ-4B DEB now!
10-day predictions


NORAD ID: 40532
Int'l Code: 2013-057E
Perigee: 590.6 km
Apogee: 877.6 km
Inclination: 74.9 °
Period: 99.3 minutes
Semi major axis: 7105 km
RCS: Unknown
Launch date: October 25, 2013
Source: People's Republic of China (PRC)
Launch site: Jiuquan Satellite Launch Center, China (JSC)

Note: This is SATELLITE DEBRIS
Your satellite tracking list
Your tracking list is empty




NASA's NSSDC Master Catalog

Two Line Element Set (TLE):
1 40532U 13057E   24324.89290220  .00011809  00000-0  23680-2 0  9997
2 40532  74.8697 146.1278 0201955 184.4563 175.4814 14.49602960577492
Source of the keplerian elements: AFSPC